314P/Montani (2016)

Japanese version
Home page
Updated on March 25, 2017

---------------------------------------------------------------------

* Profile

Designation 314P/2014 U1
Recovery Date October 21, 2014
Magnitude 20.4 mag
Recoverer G. V. Williams, T. H. Bressi and A. F. Tubbiolo (Spacewatch, Kitt Peak)

* Pictures

* Orbital Elements

Epoch 2016 Oct. 19.0 TT = JDT 2457680.5
T 2016 Oct. 7.86428 TT                                  MPCW
q   4.2337651            (2000.0)            P               Q
n   0.05037361     Peri.  213.74137     -0.52035281     -0.85113259
a   7.2610705      Node   267.70433     +0.79801652     -0.45576513
e   0.4169227      Incl.    3.97855     +0.30397795     -0.26048313
P  19.57
From 348 observations 1997 Apr. 9-2017 Mar. 1, mean residual 0".6.

* Magnitudes Graph

        m1 = 9.0 + 5 log d + 10.0 log r

---------------------------------------------------------------------

The orbital elements are published on M.P.E.C. 2017-E59.
The magnitudes graphs are made with Comet for Windows.

---------------------------------------------------------------------

Copyright(C) Seiichi Yoshida (comet@aerith.net). All rights reserved.